Theta_e
295 295 295 295 294 294 294 293 294 294 294 294 294 294 293 293 293 292 292 291 291 290 290 290 289 289 289 289 289 289 288 288 288 288 288 287 287 287 287 287 287 286
295 294 294 294 294 294 293 294 294 294 294 294 293 293 293 292 291 291 290 290 289 289 289 288 288 288 288 288 288 288 288 288 288 288 288 287 287 287 287 287 286 286
294 293 293 293 293 294 294 294 294 294 293 293 293 292 291 291 290 289 289 288 288 288 288 288 288 287 287 287 287 287 287 287 287 287 287 287 287 287 286 286 286 286
293 293 293 293 293 293 293 293 293 293 293 292 291 291 290 290 289 289 288 288 288 288 287 287 287 287 287 287 287 287 287 287 287 287 286 286 286 286 286 286 286 286
292 293 293 293 293 293 293 293 292 292 291 291 291 290 289 289 289 288 288 288 288 287 287 287 287 287 287 287 287 287 287 287 286 286 286 286 286 286 286 286 285 285
292 292 292 292 292 292 292 292 291 291 291 291 290 290 289 289 288 288 288 288 287 287 287 287 287 287 286 286 287 286 286 286 286 286 286 286 285 285 285 285 285 285
292 292 292 292 292 292 291 291 291 291 290 290 290 289 289 288 288 288 288 288 287 287 287 287 287 286 286 286 286 286 286 286 286 286 285 285 285 285 285 285 285 285
291 291 291 291 291 291 291 291 290 290 290 289 289 289 288 288 288 288 288 287 287 287 287 287 287 286 286 286 286 286 286 286 286 285 285 285 285 285 285 285 285 285
291 291 291 291 291 291 290 290 290 290 289 289 289 288 288 288 288 287 287 287 287 287 287 287 287 286 286 286 286 286 286 285 285 285 285 285 285 284 284 285 285 285
291 291 291 291 291 290 290 290 290 289 289 288 288 288 288 288 287 287 287 287 287 287 287 287 287 286 286 286 286 286 285 285 285 284 284 284 284 284 284 284 284 284
290 291 291 291 291 290 290 290 289 289 289 288 288 288 288 287 287 287 287 287 287 287 287 287 287 286 286 286 286 285 285 284 284 284 284 284 284 284 284 284 284 284
290 291 291 290 290 290 290 289 289 289 288 288 288 288 287 287 287 287 287 287 287 287 287 287 286 286 286 286 285 285 284 284 284 284 284 284 284 284 284 284 284 284
290 290 291 290 290 290 289 289 289 289 288 288 288 287 287 287 287 287 287 287 287 287 287 286 286 286 286 285 284 284 284 284 284 284 284 284 284 284 284 284 284 284
290 290 290 290 290 290 289 289 289 288 288 288 288 287 287 287 287 287 287 287 287 287 286 286 286 285 285 284 284 284 284 283 284 284 284 284 284 284 284 284 283 283
290 291 290 290 290 289 289 289 288 288 288 288 287 287 287 287 287 287 287 287 287 286 286 286 285 285 284 284 283 283 283 283 283 283 283 283 283 283 283 283 283 283
290 290 290 290 290 289 289 289 288 288 288 288 288 288 287 288 288 287 287 287 286 286 286 286 285 284 284 283 283 283 283 283 283 283 283 283 283 283 283 283 283 283
290 290 290 290 290 289 289 288 288 288 288 288 288 288 288 288 287 287 287 287 287 286 286 285 285 284 283 283 283 283 283 283 283 283 283 283 283 283 283 283 282 282
290 290 290 290 289 289 289 288 288 288 288 288 288 288 288 288 287 287 287 287 287 286 286 285 284 283 283 282 282 282 282 283 283 283 283 283 283 283 282 282 282 282
290 290 290 290 289 289 288 288 288 288 288 288 288 288 288 287 287 287 287 287 287 286 286 285 284 283 282 282 282 282 282 282 282 282 282 282 282 282 282 282 282 281
290 290 290 290 289 289 288 288 288 288 288 288 288 288 288 287 287 287 287 287 286 286 286 285 284 283 282 282 282 282 282 282 282 282 282 282 282 282 282 281 281 281
290 290 290 290 289 288 288 288 288 288 288 288 288 288 287 287 287 287 287 286 286 286 286 285 284 283 282 282 282 282 282 282 282 282 282 282 282 282 281 281 281 280
290 290 290 289 289 288 288 288 288 288 288 288 288 287 287 287 287 287 286 286 286 286 286 285 284 282 282 282 281 281 282 282 282 282 282 282 281 281 281 281 280 280
290 290 290 289 288 288 288 288 288 288 288 288 288 287 287 287 287 286 286 286 286 286 286 285 283 282 282 281 281 281 281 281 281 282 281 281 281 281 280 280 280 279
290 290 290 289 288 288 288 288 288 288 288 288 288 287 287 287 286 286 286 286 286 285 285 285 284 282 281 281 281 281 281 281 281 281 281 281 280 280 280 279 279 279
289 290 290 289 288 288 288 288 288 288 288 288 288 287 287 286 286 286 285 285 285 285 285 285 283 282 281 281 281 281 281 281 281 281 280 280 280 279 279 279 278 278
289 290 290 289 288 288 288 288 288 288 288 288 288 287 287 286 286 286 285 285 285 285 285 284 283 282 281 281 281 281 280 280 280 280 280 279 279 278 278 278 277 277
Wind_Speed
9 8 7 6 5 5 4 4 3 4 6 7 10 11 12 13 14 14 15 15 16 17 17 17 17 17 18 18 18 18 19 19 19 19 20 20 20 20 20 20 20 21
9 9 7 6 5 4 3 1 2 3 6 7 9 10 10 11 12 13 13 14 14 15 15 15 15 16 16 16 17 17 17 18 19 19 20 21 21 21 22 22 22 22
10 9 7 6 4 2 1 1 2 3 5 6 7 8 9 10 11 12 13 13 14 14 14 15 15 15 16 16 16 17 17 18 18 19 20 21 21 22 23 23 24 25
11 9 7 5 4 3 3 2 2 3 4 6 7 8 10 11 12 12 13 14 15 15 16 16 16 17 17 17 17 18 18 19 19 19 20 20 21 23 23 24 25 26
11 9 7 6 6 5 4 3 3 4 5 6 8 9 11 12 13 14 15 16 17 17 18 18 19 19 19 19 19 19 19 19 19 20 20 21 22 23 24 25 26 27
11 10 9 8 7 6 5 4 4 4 5 7 9 11 12 13 15 16 17 18 19 19 20 20 20 20 20 20 20 19 19 19 20 20 21 22 23 24 26 26 27 27
12 11 10 9 9 7 6 5 4 5 7 8 10 12 13 14 16 17 18 18 19 20 20 21 21 21 21 21 21 21 21 21 21 22 23 24 25 26 27 27 27 27
13 13 12 11 9 8 6 5 5 6 7 9 10 12 13 15 16 17 18 18 19 20 21 22 23 23 23 23 23 22 22 22 23 23 24 25 26 27 27 27 27 28
15 14 13 12 10 8 6 6 6 7 8 10 11 12 14 15 16 17 18 19 21 22 23 23 24 24 24 23 23 23 22 23 23 24 25 26 26 27 27 27 27 27
16 15 14 12 10 8 7 6 7 7 9 10 12 13 14 15 16 18 19 20 22 23 24 24 24 24 24 23 23 22 22 22 23 24 25 26 26 26 26 26 26 27
18 16 14 12 10 8 7 7 7 8 10 11 12 14 15 16 17 18 20 21 22 23 24 24 24 24 23 23 22 22 22 23 23 24 25 26 26 26 26 26 27 27
19 17 15 12 10 9 8 7 7 9 10 12 13 14 16 17 18 19 20 21 22 23 24 24 24 24 23 23 22 22 23 23 24 24 25 25 25 26 26 27 27 28
19 17 15 13 11 10 8 7 8 10 11 12 14 15 16 18 19 20 21 22 23 23 24 24 24 23 23 23 23 23 23 24 24 24 25 25 25 25 26 26 27 28
20 18 15 14 12 10 8 8 9 10 12 13 14 16 17 19 20 21 21 22 23 23 23 23 23 23 23 23 23 24 24 24 25 24 25 25 25 25 26 26 28 29
21 19 16 14 12 10 9 9 10 11 12 13 15 17 18 19 20 21 22 22 23 23 23 23 23 22 22 23 23 24 24 24 25 25 25 25 25 25 26 27 28 30
22 19 17 15 13 11 10 10 11 12 12 14 15 17 19 20 21 21 22 23 23 23 23 23 23 22 22 23 23 24 25 25 25 26 25 26 26 26 27 28 29 30
22 20 18 16 14 12 11 12 12 12 12 14 16 18 19 20 21 22 22 23 23 23 23 22 22 22 22 23 23 24 25 25 26 26 26 26 27 27 28 29 30 31
24 21 19 17 15 13 13 13 12 12 13 14 16 18 20 20 21 22 22 23 23 23 23 22 22 23 22 23 24 24 25 26 26 26 27 27 28 28 29 31 32 33
25 23 20 18 16 14 14 13 13 12 13 14 16 18 19 20 21 22 22 23 24 23 23 23 22 23 23 23 24 24 25 25 26 27 27 28 29 29 30 31 32 33
25 24 22 19 16 15 15 14 13 13 13 14 16 17 19 20 21 22 23 24 24 25 24 23 23 23 24 24 24 24 25 26 26 27 28 29 29 30 31 32 32 33
27 26 23 20 17 17 16 14 13 13 13 14 16 18 20 21 22 23 24 25 25 26 25 24 23 24 24 24 24 24 25 26 27 27 29 30 30 31 32 32 33 33
29 27 24 20 19 19 17 15 14 14 14 15 16 18 20 22 23 24 25 25 26 26 26 25 24 24 25 25 25 25 26 27 27 28 29 30 31 32 33 33 34 34
31 28 25 22 21 20 18 16 16 15 15 16 18 20 21 22 24 24 25 25 26 27 27 26 24 24 25 25 25 26 26 27 28 29 30 31 32 33 33 33 34 33
31 28 26 24 22 21 19 18 17 16 17 18 19 21 22 23 24 25 25 25 26 27 27 27 26 25 25 26 26 26 26 27 28 30 31 32 33 33 33 34 34 33
32 30 28 25 23 21 20 20 19 18 19 20 21 22 23 23 24 25 25 26 26 27 27 27 27 25 25 26 26 26 26 27 28 30 31 32 33 33 34 34 33 32
33 31 29 26 24 23 23 22 21 21 21 21 22 23 23 23 24 25 26 26 27 27 27 27 27 26 26 26 26 26 26 26 28 30 31 31 32 33 33 33 32 31
Wind_Direction
148 148 149 147 141 131 119 98 72 40 18 9 2 357 352 348 344 341 340 340 339 338 337 336 335 335 333 333 332 331 331 331 331 331 331 331 331 332 332 331 331 329
165 164 162 157 148 137 126 87 15 360 356 354 350 345 341 338 337 337 337 337 337 336 336 335 333 332 331 330 328 327 326 326 326 326 326 327 328 328 329 328 328 328
175 173 169 167 168 176 202 269 319 336 340 340 338 334 334 334 336 338 338 338 338 337 336 335 334 334 332 332 331 329 329 327 327 328 327 327 327 327 328 328 328 327
182 181 181 188 199 216 234 252 286 311 323 325 329 331 334 338 339 340 339 338 338 337 337 336 336 336 336 335 334 333 332 331 330 330 329 328 328 327 327 327 326 326
189 192 196 207 215 224 233 246 271 295 312 321 329 335 337 339 338 338 338 337 337 337 337 337 337 337 336 335 335 334 332 331 330 329 328 328 328 328 327 327 326 326
198 203 208 215 221 226 234 247 267 291 313 324 332 334 335 336 336 336 336 336 336 335 334 334 334 333 333 333 332 332 331 330 329 328 328 329 329 328 328 327 327 327
207 210 214 219 224 227 235 249 272 298 316 325 330 332 333 334 333 333 333 332 331 330 330 331 330 330 331 330 330 330 329 328 328 328 329 329 329 329 328 327 327 327
211 215 217 220 224 228 238 257 283 304 316 324 329 331 331 330 329 329 329 329 329 329 329 329 329 329 329 328 328 328 327 327 327 327 328 328 328 327 327 327 326 326
215 217 219 221 224 231 245 266 288 305 317 325 329 330 328 327 327 327 327 329 329 329 329 328 327 327 326 326 326 325 325 325 325 326 327 327 327 326 326 325 325 325
216 217 219 222 226 236 252 270 290 308 319 325 328 327 326 325 325 326 327 328 328 328 327 326 325 324 323 323 323 322 322 322 323 325 325 326 325 325 324 324 324 325
217 218 221 224 231 241 255 273 294 310 318 323 325 324 323 323 322 323 324 325 326 326 326 324 322 321 320 320 320 320 320 320 322 323 324 325 324 323 324 324 324 324
218 220 223 227 234 244 257 275 295 309 316 320 321 321 321 320 320 321 323 324 325 325 324 322 320 319 318 318 318 317 318 319 320 322 323 323 323 322 323 323 323 323
220 222 225 230 236 244 258 276 294 306 313 315 317 318 318 319 320 321 323 324 325 324 322 321 319 317 317 317 316 316 316 317 319 321 321 321 321 321 322 322 322 322
222 224 227 231 236 244 257 275 292 302 308 311 314 315 317 319 321 323 323 324 323 322 321 319 317 316 315 315 315 314 314 316 317 318 319 319 319 320 320 321 321 321
223 226 229 231 235 244 257 273 287 297 304 309 312 314 317 320 321 322 323 323 323 322 320 318 316 314 314 313 313 312 312 313 315 316 317 317 318 318 319 320 321 320
224 227 229 231 235 244 257 271 283 294 302 308 312 315 317 319 321 322 323 323 324 323 320 317 314 312 312 312 311 311 311 312 313 314 316 316 316 317 318 319 320 320
225 227 229 232 236 245 257 269 280 291 301 307 311 313 315 318 319 321 323 323 323 322 319 315 312 310 310 310 310 309 309 310 311 313 313 314 314 315 317 318 319 319
225 228 230 233 237 246 257 267 277 288 299 306 308 310 312 316 318 320 322 321 320 320 317 313 310 309 309 308 307 307 307 308 309 310 311 312 313 315 316 318 318 319
226 229 232 234 238 247 257 264 275 286 296 301 304 307 310 314 317 318 319 318 317 317 315 311 308 307 307 307 305 305 305 305 306 308 309 310 313 315 316 317 317 317
228 231 233 235 239 248 255 262 272 282 290 296 301 306 310 312 314 315 315 315 315 314 313 310 307 305 305 305 304 303 303 303 305 307 309 310 313 314 315 316 316 315
230 233 234 236 241 247 253 258 267 275 283 291 298 304 307 309 310 311 312 312 312 312 312 309 306 305 304 304 302 301 301 302 305 307 308 310 312 313 314 314 314 314
232 235 235 237 241 246 249 254 261 269 277 286 294 300 303 306 307 308 309 309 310 311 310 309 306 304 303 302 301 301 301 303 305 306 308 309 311 313 313 313 314 315
234 236 237 238 241 245 247 251 257 265 273 282 290 296 300 304 305 306 307 308 310 310 309 307 305 302 301 301 300 301 302 303 305 307 308 310 311 312 313 313 313 314
235 238 238 239 242 244 246 250 256 262 270 278 286 293 298 302 304 305 306 308 309 309 308 305 302 301 300 299 299 301 302 304 306 307 308 310 311 312 312 312 312 314
237 240 239 239 242 244 245 249 255 261 268 275 282 289 294 299 303 305 306 306 307 308 306 303 300 299 299 298 299 300 302 304 306 306 308 310 311 311 311 311 312 315
238 240 239 239 243 244 244 249 254 259 264 270 278 285 290 297 302 304 304 304 306 307 305 301 298 297 297 298 298 299 302 304 305 307 309 310 309 309 310 311 313 315